This is the latest recevied weather packets stored in our database for station/object KD0ISH. If no packets are shown the sender has not sent any weather packets the latest 10 day(s).
| Time | Temp. | Humidity | Pressure | Rain* | Wind** | Luminosity | Snow |
|---|---|---|---|---|---|---|---|
| 1778005903 | 10.56° C | 74% | 1011.8 hPa | 0 mm | - | 71 W/m² | - |
| 1778005599 | 10.56° C | 73% | 1012 hPa | 0 mm | - | 68 W/m² | - |
| 1778005296 | 11.11° C | 73% | 1011.7 hPa | 0 mm | - | 107 W/m² | - |
| 1778004992 | 11.11° C | 73% | 1011.6 hPa | 0 mm | - | 107 W/m² | - |
| 1778004690 | 11.11° C | 73% | 1011.5 hPa | 0 mm | - | 80 W/m² | - |
| 1778004386 | 11.11° C | 74% | 1011.8 hPa | 0 mm | - | 93 W/m² | - |
| 1778004084 | 11.11° C | 74% | 1011.5 hPa | 0 mm | - | 103 W/m² | - |
| 1778003780 | 11.11° C | 73% | 1011.5 hPa | 0 mm | - | 123 W/m² | - |
| 1778003476 | 11.11° C | 71% | 1011.2 hPa | 0 mm | - | 129 W/m² | - |
| 1778003173 | 11.11° C | 70% | 1011.3 hPa | 0 mm | - | 118 W/m² | - |
| 1778002869 | 11.11° C | 70% | 1011.4 hPa | 0 mm | - | 121 W/m² | - |
| 1778002566 | 11.67° C | 70% | 1011 hPa | 0 mm | - | 116 W/m² | - |
| 1778002262 | 11.67° C | 71% | 1011.3 hPa | 0 mm | - | 140 W/m² | - |
| 1778001961 | 11.67° C | 71% | 1011.3 hPa | 0 mm | - | 175 W/m² | - |
| 1778001657 | 11.11° C | 72% | 1011.1 hPa | 0 mm | - | 135 W/m² | - |
| 1778001357 | 11.11° C | 73% | 1011 hPa | 0 mm | - | 181 W/m² | - |
| 1778001055 | 11.11° C | 75% | 1011.5 hPa | 0 mm | - | 93 W/m² | - |
| 1778000751 | 11.11° C | 76% | 1011.4 hPa | 0 mm | - | 76 W/m² | - |
| 1778000448 | 11.11° C | 76% | 1011.6 hPa | 0 mm | - | 71 W/m² | - |
| 1778000143 | 11.11° C | 77% | 1011.7 hPa | 0 mm | - | 62 W/m² | - |
| 1777999839 | 11.11° C | 78% | 1011.4 hPa | 0 mm | - | 72 W/m² | - |
| 1777999535 | 11.11° C | 78% | 1011.5 hPa | 0 mm | - | 76 W/m² | - |
| 1777999232 | 11.11° C | 79% | 1011.3 hPa | 0 mm | - | 96 W/m² | - |
| 1777998931 | 11.11° C | 78% | 1011.3 hPa | 0 mm | - | 74 W/m² | - |
| 1777998628 | 11.11° C | 79% | 1011.3 hPa | 0 mm | - | 91 W/m² | - |
* Rain latest hour (hover to see other rain measurements)
** Current wind speed in m/s (hover to see current wind gust speed)